Location: Unspecified
(0.0000°N, 0.0000°E)
Time: 10:24:10
(UTC+00:00)

BEESAT - Pass Details

Date: 13 December 2017
Orbit: 700 x 710 km, 98.6° (Epoch: 15 July)

Event Time Altitude Azimuth Distance (km) Brightness Sun altitude
Rises 02:50:09 0° 160° (SSE) 3,094 ? -41.4°
Reaches altitude 10° 02:52:27 10° 155° (SSE) 2,172 ? -40.9°
Enters shadow 02:52:29 10° 155° (SSE) 2,162 ? -40.9°
